{"data":{"norad_id":62460,"epoch":"2026-05-25T04:07:30.293760Z","epoch_age_seconds":60543,"freshness":"FRESH","line1":"1 62460U 24253B   26145.17187840  .00063821  00000+0  61550-3 0  9997","line2":"2 62460  54.9933  96.1296 0006495  97.6533 262.5245 15.65939606 78914","mean_motion":15.65939606,"eccentricity":0.0006495,"inclination_deg":54.9933,"raan_deg":96.1296,"arg_perigee_deg":97.6533,"mean_anomaly_deg":262.5245,"bstar":0.0006155,"rev_number":7891,"period_min":91.957569403223,"perigee_km":366.15455328392,"apogee_km":374.92108187196,"semimajor_km":6748.6748175779,"source":"CELESTRAK","updated_at":"2026-05-25T13:38:03.009399Z"}}